AVA222 SKBO-KBOS

Flight info

Callsign AVA222
Flight time N/A
Altitude 33000
Route OSUSU4R GIKPU A301 EJA/N0382F240 A301 MLY L347 VIKRO M218 ENAMO/N0450F370 Y307 ZQA/N0450F390 Y307 HANKX BR58V ANGLL AR3 GARIC Q107 ZORDO Q135 RREGG Q117 SAWED Q97 NTMEG DCT ORW WOONS2
Aircraft A20N/M-SDE2E3FGHIRWXY/LB1

Departure

Time 2026-05-06 14:08
Airport El Dorado International Airport (SKBO)

Arrival

Time N/A
Airport Boston Logan International Airport (KBOS)
Time Latitude Longitude Altitude Speed Heading
2026-05-06 13:44 4.69992 -74.14117 8367 ft 0 kts 209°
2026-05-06 13:44 4.69993 -74.14117 8366 ft 0 kts 209°
2026-05-06 13:46 4.70001 -74.14112 8367 ft 2 kts 210°
2026-05-06 13:47 4.70013 -74.14104 8367 ft 2 kts 223°
2026-05-06 13:47 4.70023 -74.14093 8367 ft 2 kts 236°
2026-05-06 13:47 4.70031 -74.14080 8367 ft 2 kts 252°
2026-05-06 13:47 4.70034 -74.14065 8367 ft 2 kts 271°
2026-05-06 13:48 4.70032 -74.14051 8367 ft 2 kts 289°
2026-05-06 13:48 4.70027 -74.14038 8367 ft 0 kts 305°
2026-05-06 13:52 4.69993 -74.14117 8367 ft 0 kts 209°
2026-05-06 13:53 4.69992 -74.14117 8366 ft 0 kts 209°
2026-05-06 13:53 4.69993 -74.14117 8366 ft 0 kts 209°
2026-05-06 13:55 4.70000 -74.14113 8367 ft 3 kts 209°
2026-05-06 13:55 4.70018 -74.14100 8367 ft 3 kts 224°
2026-05-06 13:56 4.70032 -74.14083 8367 ft 3 kts 242°
2026-05-06 13:56 4.70041 -74.14063 8367 ft 3 kts 259°
2026-05-06 13:56 4.70042 -74.14041 8367 ft 3 kts 277°
2026-05-06 13:56 4.70038 -74.14024 8367 ft 0 kts 302°
2026-05-06 13:58 4.70038 -74.14025 8367 ft 1 kts 302°
2026-05-06 13:58 4.70064 -74.14079 8367 ft 15 kts 301°
2026-05-06 13:59 4.70129 -74.14170 8367 ft 17 kts 307°
2026-05-06 13:59 4.70225 -74.14211 8366 ft 15 kts 352°
2026-05-06 13:59 4.70302 -74.14283 8367 ft 18 kts 307°
2026-05-06 13:59 4.70410 -74.14340 8367 ft 18 kts 350°
2026-05-06 14:00 4.70498 -74.14424 8367 ft 18 kts 307°
2026-05-06 14:00 4.70568 -74.14517 8366 ft 10 kts 307°
2026-05-06 14:00 4.70605 -74.14565 8366 ft 8 kts 307°
2026-05-06 14:00 4.70626 -74.14593 8367 ft 0 kts 308°
2026-05-06 14:01 4.70642 -74.14613 8367 ft 6 kts 308°
2026-05-06 14:01 4.70669 -74.14648 8366 ft 6 kts 308°
2026-05-06 14:01 4.70703 -74.14692 8366 ft 10 kts 307°
2026-05-06 14:01 4.70742 -74.14746 8366 ft 9 kts 307°
2026-05-06 14:02 4.70778 -74.14794 8366 ft 8 kts 307°
2026-05-06 14:02 4.70808 -74.14834 8366 ft 6 kts 307°
2026-05-06 14:02 4.70840 -74.14877 8366 ft 13 kts 307°
2026-05-06 14:02 4.70899 -74.14957 8366 ft 13 kts 307°
2026-05-06 14:03 4.70949 -74.15023 8366 ft 10 kts 307°
2026-05-06 14:03 4.71010 -74.15104 8365 ft 18 kts 307°
2026-05-06 14:03 4.71081 -74.15196 8366 ft 5 kts 308°
2026-05-06 14:03 4.71099 -74.15220 8366 ft 10 kts 307°
2026-05-06 14:04 4.71160 -74.15269 8366 ft 11 kts 339°
2026-05-06 14:04 4.71192 -74.15275 8366 ft 0 kts 353°
2026-05-06 14:05 4.71193 -74.15275 8366 ft 0 kts 353°
2026-05-06 14:05 4.71200 -74.15276 8366 ft 2 kts 353°
2026-05-06 14:05 4.71218 -74.15277 8366 ft 3 kts
2026-05-06 14:06 4.71239 -74.15269 8366 ft 4 kts 32°
2026-05-06 14:06 4.71262 -74.15250 8366 ft 5 kts 39°
2026-05-06 14:06 4.71276 -74.15239 8366 ft 0 kts 39°
2026-05-06 14:07 4.71285 -74.15232 8365 ft 3 kts 39°
2026-05-06 14:07 4.71307 -74.15208 8365 ft 11 kts 59°
2026-05-06 14:07 4.71262 -74.15100 8365 ft 33 kts 127°
2026-05-06 14:07 4.70977 -74.14717 8365 ft 101 kts 127°
2026-05-06 14:08 4.70446 -74.14026 8365 ft 151 kts 127°
2026-05-06 14:08 4.69725 -74.13094 8592 ft 175 kts 127°
2026-05-06 14:08 4.68984 -74.12156 9442 ft 169 kts 124°
2026-05-06 14:08 4.68565 -74.11034 9875 ft 181 kts 94°
2026-05-06 14:09 4.68686 -74.09718 10095 ft 204 kts 69°
2026-05-06 14:09 4.69615 -74.08560 10339 ft 229 kts 37°
2026-05-06 14:09 4.71158 -74.07947 10674 ft 245 kts 15°
2026-05-06 14:09 4.72847 -74.07641 11167 ft 251 kts 14°
2026-05-06 14:10 4.74605 -74.07204 11351 ft 272 kts 18°
2026-05-06 14:10 4.76484 -74.06673 11581 ft 291 kts 18°
2026-05-06 14:10 4.78512 -74.06104 11782 ft 314 kts 18°
2026-05-06 14:10 4.80693 -74.05515 11964 ft 335 kts 17°
2026-05-06 14:11 4.83007 -74.04906 12214 ft 351 kts 17°
2026-05-06 14:11 4.85347 -74.04267 12825 ft 352 kts 20°
2026-05-06 14:11 4.87683 -74.03476 13458 ft 356 kts 21°
2026-05-06 14:11 4.90036 -74.02679 14125 ft 358 kts 21°
2026-05-06 14:12 4.92416 -74.01872 14670 ft 362 kts 21°
2026-05-06 14:12 4.94808 -74.01061 15235 ft 364 kts 21°
2026-05-06 14:12 4.97222 -74.00241 15735 ft 368 kts 21°
2026-05-06 14:12 4.99649 -73.99417 16310 ft 370 kts 21°
2026-05-06 14:13 5.02108 -73.98608 16802 ft 374 kts 18°
2026-05-06 14:13 5.04652 -73.97970 17321 ft 377 kts 16°
2026-05-06 14:13 5.07207 -73.97338 17838 ft 379 kts 16°
2026-05-06 14:13 5.09753 -73.96704 18320 ft 382 kts 16°
2026-05-06 14:14 5.12340 -73.96059 18787 ft 385 kts 17°
2026-05-06 14:14 5.14946 -73.95408 19188 ft 387 kts 16°
2026-05-06 14:14 5.17570 -73.94754 19628 ft 389 kts 17°
2026-05-06 14:14 5.20209 -73.94096 20061 ft 391 kts 16°
2026-05-06 14:15 5.22858 -73.93436 20492 ft 394 kts 16°
2026-05-06 14:15 5.25525 -73.92771 20884 ft 396 kts 16°
2026-05-06 14:15 5.28216 -73.92100 21307 ft 399 kts 16°
2026-05-06 14:15 5.30921 -73.91426 21746 ft 401 kts 16°
2026-05-06 14:16 5.33643 -73.90746 22143 ft 404 kts 16°
2026-05-06 14:16 5.36381 -73.90063 22565 ft 406 kts 16°
2026-05-06 14:16 5.39106 -73.89383 22949 ft 409 kts 16°
2026-05-06 14:16 5.41878 -73.88693 23310 ft 412 kts 16°
2026-05-06 14:17 5.44670 -73.87997 23686 ft 415 kts 16°
2026-05-06 14:17 5.47479 -73.87296 24075 ft 417 kts 16°
2026-05-06 14:17 5.50305 -73.86590 24390 ft 419 kts 15°
2026-05-06 14:17 5.53148 -73.85881 24704 ft 422 kts 16°
2026-05-06 14:18 5.56015 -73.85217 25028 ft 424 kts 13°
2026-05-06 14:18 5.58922 -73.84626 25315 ft 427 kts 13°
2026-05-06 14:18 5.61816 -73.84057 25615 ft 429 kts 13°
2026-05-06 14:18 5.64758 -73.83472 25913 ft 431 kts 13°
2026-05-06 14:19 5.67709 -73.82875 26205 ft 434 kts 13°
2026-05-06 14:19 5.70669 -73.82270 26509 ft 436 kts 13°
2026-05-06 14:19 5.73650 -73.81657 26785 ft 438 kts 13°
2026-05-06 14:19 5.76642 -73.81041 27061 ft 440 kts 13°
2026-05-06 14:20 5.79649 -73.80422 27322 ft 442 kts 13°
2026-05-06 14:20 5.82678 -73.79797 27576 ft 444 kts 13°
2026-05-06 14:20 5.85713 -73.79171 27830 ft 446 kts 13°
2026-05-06 14:20 5.88763 -73.78542 28073 ft 448 kts 13°
2026-05-06 14:21 5.91823 -73.77911 28325 ft 450 kts 13°
2026-05-06 14:21 5.94905 -73.77276 28582 ft 452 kts 13°
2026-05-06 14:21 5.97987 -73.76641 28803 ft 454 kts 13°
2026-05-06 14:21 6.01091 -73.76001 29037 ft 456 kts 13°
2026-05-06 14:22 6.04206 -73.75358 29264 ft 458 kts 13°
2026-05-06 14:22 6.07330 -73.74715 29465 ft 459 kts 13°
2026-05-06 14:22 6.10432 -73.74076 29687 ft 461 kts 13°
2026-05-06 14:22 6.13582 -73.73427 29901 ft 463 kts 12°
2026-05-06 14:23 6.16750 -73.72775 30106 ft 465 kts 12°
2026-05-06 14:23 6.19925 -73.72121 30298 ft 467 kts 12°
2026-05-06 14:23 6.23122 -73.71463 30497 ft 468 kts 12°
2026-05-06 14:23 6.26315 -73.70805 30698 ft 469 kts 12°
2026-05-06 14:24 6.29518 -73.70145 30886 ft 471 kts 12°
2026-05-06 14:24 6.32737 -73.69481 31084 ft 472 kts 12°
2026-05-06 14:24 6.35957 -73.68818 31321 ft 472 kts 12°
2026-05-06 14:24 6.39177 -73.68154 31600 ft 472 kts 12°
2026-05-06 14:25 6.42390 -73.67491 31883 ft 471 kts 12°
2026-05-06 14:25 6.45631 -73.66998 32137 ft 472 kts
2026-05-06 14:25 6.48874 -73.66958 32377 ft 473 kts 357°
2026-05-06 14:25 6.52128 -73.67379 32759 ft 469 kts 349°
2026-05-06 14:26 6.55273 -73.68156 33028 ft 461 kts 346°
2026-05-06 14:26 6.58360 -73.68962 33087 ft 460 kts 346°
2026-05-06 14:26 6.64640 -73.70590 33081 ft 471 kts 346°
2026-05-06 14:27 6.71054 -73.72256 33054 ft 480 kts 346°
2026-05-06 14:27 6.77546 -73.73948 33015 ft 482 kts 346°
2026-05-06 14:28 6.84054 -73.75645 32977 ft 481 kts 346°
2026-05-06 14:28 6.90540 -73.77337 32948 ft 481 kts 346°
2026-05-06 14:29 6.96980 -73.79016 32933 ft 481 kts 346°
2026-05-06 14:29 7.03448 -73.80704 32928 ft 480 kts 346°
2026-05-06 14:30 7.09889 -73.82458 32936 ft 479 kts 345°
2026-05-06 14:30 7.16307 -73.84235 32951 ft 478 kts 345°
2026-05-06 14:31 7.22715 -73.85998 32962 ft 477 kts 345°
2026-05-06 14:31 7.29120 -73.87757 32974 ft 476 kts 345°
2026-05-06 14:32 7.35514 -73.89513 32986 ft 475 kts 345°
2026-05-06 14:32 7.41892 -73.91272 32987 ft 475 kts 345°
2026-05-06 14:33 7.48226 -73.93025 32979 ft 475 kts 345°
2026-05-06 14:33 7.54598 -73.94788 32984 ft 475 kts 345°
2026-05-06 14:34 7.60970 -73.96551 32983 ft 475 kts 345°
2026-05-06 14:34 7.67358 -73.98319 32982 ft 475 kts 345°
2026-05-06 14:35 7.73747 -74.00087 32985 ft 476 kts 345°
2026-05-06 14:35 7.80142 -74.01859 32986 ft 476 kts 345°
2026-05-06 14:36 7.86535 -74.03630 32987 ft 477 kts 345°
2026-05-06 14:36 7.92905 -74.05395 32981 ft 477 kts 345°
2026-05-06 14:37 7.99314 -74.07171 32985 ft 477 kts 345°
2026-05-06 14:37 8.05737 -74.08964 32986 ft 477 kts 345°
2026-05-06 14:38 8.12104 -74.10746 32985 ft 477 kts 345°
2026-05-06 14:38 8.18505 -74.12536 32984 ft 477 kts 345°
2026-05-06 14:39 8.24908 -74.14327 32980 ft 477 kts 345°
2026-05-06 14:39 8.31318 -74.16120 32971 ft 477 kts 345°
2026-05-06 14:40 8.37719 -74.17911 32968 ft 477 kts 345°
2026-05-06 14:40 8.44115 -74.19702 32962 ft 476 kts 345°
2026-05-06 14:41 8.50503 -74.21490 32954 ft 476 kts 345°
2026-05-06 14:41 8.56838 -74.23265 32935 ft 475 kts 345°
2026-05-06 14:42 8.63217 -74.25053 32926 ft 475 kts 345°
2026-05-06 14:42 8.69583 -74.26837 32935 ft 474 kts 345°
2026-05-06 14:43 8.75942 -74.28620 32928 ft 474 kts 345°
2026-05-06 14:43 8.82297 -74.30402 32925 ft 473 kts 345°
2026-05-06 14:44 8.88646 -74.32184 32924 ft 473 kts 345°
2026-05-06 14:45 8.98163 -74.34856 32917 ft 473 kts 345°
2026-05-06 14:45 9.04506 -74.36637 32908 ft 473 kts 344°
2026-05-06 14:46 9.10807 -74.38409 32903 ft 473 kts 344°
2026-05-06 14:46 9.17150 -74.40194 32905 ft 473 kts 344°
2026-05-06 14:47 9.23496 -74.41981 32906 ft 473 kts 344°
2026-05-06 14:47 9.29850 -74.43770 32909 ft 474 kts 344°
2026-05-06 14:48 9.36212 -74.45562 32896 ft 474 kts 344°
2026-05-06 14:48 9.42538 -74.47344 32908 ft 474 kts 344°
2026-05-06 14:49 9.48894 -74.49136 32910 ft 474 kts 344°
2026-05-06 14:49 9.55262 -74.50931 32908 ft 475 kts 344°
2026-05-06 14:50 9.61630 -74.52727 32909 ft 475 kts 344°
2026-05-06 14:50 9.68001 -74.54516 32914 ft 475 kts 344°
2026-05-06 14:51 9.74374 -74.56306 32913 ft 475 kts 344°
2026-05-06 14:51 9.80738 -74.58094 32911 ft 474 kts 344°
2026-05-06 14:52 9.87068 -74.59873 32909 ft 474 kts 344°
2026-05-06 14:52 9.93426 -74.61662 32906 ft 474 kts 344°
2026-05-06 14:53 9.98708 -74.63152 32904 ft 474 kts 344°
2026-05-06 14:53 10.05059 -74.64946 32902 ft 474 kts 344°
2026-05-06 14:54 10.11418 -74.66741 32903 ft 473 kts 344°
2026-05-06 14:54 10.17772 -74.68537 32903 ft 473 kts 344°
2026-05-06 14:55 10.24121 -74.70331 32903 ft 473 kts 344°
2026-05-06 14:55 10.30462 -74.72124 32898 ft 473 kts 344°
2026-05-06 14:56 10.36799 -74.73917 32902 ft 473 kts 344°
2026-05-06 14:56 10.43100 -74.75700 32906 ft 473 kts 343°
2026-05-06 14:57 10.49449 -74.77498 32902 ft 473 kts 343°
2026-05-06 14:57 10.55778 -74.79290 32905 ft 472 kts 343°
2026-05-06 14:58 10.62110 -74.81084 32922 ft 472 kts 343°
2026-05-06 14:58 10.68441 -74.82879 32933 ft 472 kts 343°
2026-05-06 14:59 10.74740 -74.84665 32927 ft 472 kts 343°
2026-05-06 14:59 10.81071 -74.86455 32941 ft 472 kts 344°
2026-05-06 15:00 10.87436 -74.88106 32941 ft 472 kts 345°
2026-05-06 15:00 10.93807 -74.89734 32945 ft 472 kts 345°
2026-05-06 15:01 11.00159 -74.91375 32951 ft 471 kts 345°
2026-05-06 15:01 11.06511 -74.93025 32948 ft 470 kts 344°
2026-05-06 15:02 11.12791 -74.94656 32947 ft 468 kts 344°
2026-05-06 15:02 11.19105 -74.96297 32941 ft 467 kts 344°
2026-05-06 15:03 11.25396 -74.97935 32941 ft 466 kts 344°
2026-05-06 15:03 11.31680 -74.99568 32936 ft 465 kts 344°
2026-05-06 15:04 11.37957 -75.01202 32929 ft 465 kts 344°
2026-05-06 15:04 11.44179 -75.02825 32925 ft 464 kts 344°
2026-05-06 15:05 11.50445 -75.04457 32930 ft 464 kts 344°
2026-05-06 15:05 11.56708 -75.06089 32936 ft 464 kts 344°
2026-05-06 15:06 11.62965 -75.07722 32940 ft 464 kts 344°
2026-05-06 15:06 11.69219 -75.09354 32945 ft 464 kts 344°
2026-05-06 15:07 11.75477 -75.10985 32949 ft 464 kts 344°
2026-05-06 15:07 11.81733 -75.12618 32947 ft 464 kts 344°
2026-05-06 15:08 11.87944 -75.14240 32954 ft 464 kts 344°
2026-05-06 15:08 11.94199 -75.15875 32954 ft 464 kts 345°
2026-05-06 15:09 12.00461 -75.17514 32961 ft 464 kts 345°
2026-05-06 15:09 12.06716 -75.19150 32961 ft 464 kts 345°
2026-05-06 15:10 12.12970 -75.20787 32966 ft 464 kts 345°
2026-05-06 15:10 12.19236 -75.22427 32971 ft 464 kts 345°
2026-05-06 15:11 12.25445 -75.24054 32972 ft 463 kts 345°
2026-05-06 15:11 12.31686 -75.25691 32970 ft 463 kts 345°
2026-05-06 15:12 12.37929 -75.27328 32974 ft 462 kts 345°
2026-05-06 15:12 12.44166 -75.28964 32984 ft 462 kts 345°
2026-05-06 15:13 12.50396 -75.30600 32974 ft 461 kts 345°
2026-05-06 15:13 12.56613 -75.32233 32979 ft 461 kts 345°
2026-05-06 15:14 12.62779 -75.33853 32969 ft 460 kts 345°
2026-05-06 15:14 12.68984 -75.35484 32973 ft 460 kts 345°
2026-05-06 15:15 12.75176 -75.37113 32976 ft 459 kts 345°
2026-05-06 15:15 12.81367 -75.38741 32968 ft 459 kts 346°
2026-05-06 15:16 12.87543 -75.40368 32984 ft 458 kts 346°
2026-05-06 15:16 12.93711 -75.41993 32986 ft 457 kts 346°
2026-05-06 15:17 12.99874 -75.43621 32984 ft 457 kts 346°
2026-05-06 15:17 13.06030 -75.45250 32985 ft 456 kts 346°
2026-05-06 15:18 13.12137 -75.46867 32984 ft 456 kts 346°
2026-05-06 15:18 13.18292 -75.48497 32985 ft 456 kts 346°
2026-05-06 15:19 13.24441 -75.50126 32984 ft 456 kts 346°
2026-05-06 15:19 13.30590 -75.51755 32977 ft 456 kts 346°
2026-05-06 15:20 13.36703 -75.53376 32993 ft 456 kts 346°
2026-05-06 15:20 13.42848 -75.55006 32986 ft 456 kts 347°
2026-05-06 15:21 13.49007 -75.56640 32992 ft 457 kts 347°
2026-05-06 15:21 13.55166 -75.58276 32997 ft 457 kts 347°
2026-05-06 15:22 13.61336 -75.59915 32999 ft 458 kts 347°
2026-05-06 15:22 13.67471 -75.61546 32997 ft 458 kts 347°
2026-05-06 15:23 13.73656 -75.63191 33004 ft 458 kts 347°
2026-05-06 15:23 13.79837 -75.64837 33007 ft 458 kts 347°
2026-05-06 15:24 13.86013 -75.66481 33006 ft 458 kts 347°
2026-05-06 15:24 13.92193 -75.68128 33012 ft 458 kts 347°
2026-05-06 15:25 13.98367 -75.69774 33021 ft 458 kts 347°
2026-05-06 15:25 14.04500 -75.71410 33010 ft 458 kts 347°
2026-05-06 15:26 14.10672 -75.73057 33015 ft 458 kts 347°
2026-05-06 15:26 14.16848 -75.74706 33017 ft 458 kts 347°
2026-05-06 15:27 14.23013 -75.76353 33010 ft 457 kts 347°
2026-05-06 15:27 14.29176 -75.78001 33025 ft 457 kts 347°
2026-05-06 15:28 14.35300 -75.79638 33011 ft 457 kts 347°
2026-05-06 15:28 14.41459 -75.81287 33021 ft 457 kts 347°
2026-05-06 15:29 14.47621 -75.82937 33019 ft 456 kts 347°
2026-05-06 15:29 14.53776 -75.84586 33012 ft 456 kts 347°
2026-05-06 15:30 14.59923 -75.86234 33023 ft 456 kts 347°
2026-05-06 15:30 14.66034 -75.87873 33024 ft 456 kts 347°
2026-05-06 15:31 14.72176 -75.89521 33020 ft 456 kts 347°
2026-05-06 15:31 14.78326 -75.91172 33022 ft 456 kts 347°
2026-05-06 15:32 14.87540 -75.93648 33026 ft 456 kts 347°
2026-05-06 15:32 14.93636 -75.95287 33037 ft 455 kts 347°
2026-05-06 15:33 14.99765 -75.96936 33037 ft 455 kts 347°
2026-05-06 15:33 15.05896 -75.98596 33039 ft 455 kts 347°
2026-05-06 15:34 15.12019 -76.00262 33027 ft 454 kts 347°
2026-05-06 15:34 15.18143 -76.01928 33035 ft 454 kts 347°
2026-05-06 15:35 15.24251 -76.03589 33032 ft 454 kts 347°
2026-05-06 15:35 15.30364 -76.05252 33039 ft 453 kts 347°
2026-05-06 15:36 15.36466 -76.06913 33029 ft 453 kts 347°
2026-05-06 15:36 15.42524 -76.08564 33042 ft 453 kts 347°
2026-05-06 15:37 15.48629 -76.10228 33041 ft 453 kts 347°
2026-05-06 15:37 15.54721 -76.11890 33032 ft 452 kts 347°
2026-05-06 15:38 15.60813 -76.13553 33040 ft 452 kts 347°
2026-05-06 15:38 15.65876 -76.14935 33040 ft 452 kts 347°
2026-05-06 15:39 15.71955 -76.16597 33038 ft 452 kts 347°
2026-05-06 15:39 15.78037 -76.18260 33041 ft 452 kts 347°
2026-05-06 15:40 15.84114 -76.19922 33033 ft 451 kts 347°
2026-05-06 15:40 15.90191 -76.21586 33045 ft 451 kts 347°
2026-05-06 15:41 15.96261 -76.23249 33047 ft 451 kts 347°
2026-05-06 15:41 16.02328 -76.24912 33036 ft 451 kts 347°
2026-05-06 15:42 16.08354 -76.26565 33048 ft 451 kts 347°
2026-05-06 15:42 16.14419 -76.28230 33040 ft 450 kts 347°
2026-05-06 15:43 16.20490 -76.29897 33045 ft 450 kts 347°
2026-05-06 15:43 16.26548 -76.31562 33043 ft 450 kts 347°
2026-05-06 15:44 16.32605 -76.33227 33048 ft 450 kts 347°
2026-05-06 15:44 16.38661 -76.34894 33047 ft 450 kts 347°
2026-05-06 15:45 16.44722 -76.36562 33045 ft 450 kts 347°
2026-05-06 15:45 16.50780 -76.38232 33041 ft 450 kts 347°
2026-05-06 15:46 16.56795 -76.39890 33045 ft 450 kts 347°
2026-05-06 15:46 16.62851 -76.41561 33051 ft 450 kts 347°
2026-05-06 15:47 16.68919 -76.43236 33051 ft 450 kts 347°
2026-05-06 15:47 16.74977 -76.44909 33055 ft 450 kts 347°
2026-05-06 15:48 16.81041 -76.46585 33047 ft 450 kts 347°
2026-05-06 15:48 16.87101 -76.48262 33057 ft 450 kts 347°
2026-05-06 15:49 16.93124 -76.49929 33058 ft 450 kts 347°
2026-05-06 15:49 16.99189 -76.51609 33057 ft 450 kts 347°
2026-05-06 15:50 17.05250 -76.53289 33049 ft 451 kts 347°
2026-05-06 15:50 17.11322 -76.54972 33050 ft 451 kts 347°
2026-05-06 15:51 17.17392 -76.56657 33051 ft 451 kts 347°
2026-05-06 15:51 17.23412 -76.58329 33044 ft 451 kts 347°
2026-05-06 15:52 17.29485 -76.60016 33040 ft 451 kts 347°
2026-05-06 15:52 17.35554 -76.61705 33036 ft 451 kts 347°
2026-05-06 15:53 17.41628 -76.63397 33045 ft 451 kts 347°
2026-05-06 15:53 17.47654 -76.65077 33038 ft 451 kts 347°
2026-05-06 15:54 17.53729 -76.66771 33038 ft 451 kts 347°
2026-05-06 15:54 17.59799 -76.68465 33040 ft 451 kts 347°
2026-05-06 15:55 17.65872 -76.70161 33035 ft 451 kts 346°
2026-05-06 15:55 17.71942 -76.71857 33041 ft 451 kts 346°
2026-05-06 15:56 17.78018 -76.73556 33044 ft 451 kts 346°
2026-05-06 15:56 17.84092 -76.75255 33045 ft 452 kts 346°
2026-05-06 15:57 17.90204 -76.76716 33045 ft 450 kts 356°
2026-05-06 15:57 17.96353 -76.76086 33039 ft 449 kts 17°
2026-05-06 15:58 18.02132 -76.73566 33046 ft 450 kts 22°